Mount Sterling, KY

10:47 AM EDT on October 23, 2017 (GMT -0400)
Mount Sterling-Montgomery County

Weather History for KIOB - January, 2014

Change the Weather History Date:

Friday, January 10, 2014

  Actual Average Record
Temperature  
Mean Temperature 43 °F -  
Max Temperature 51 °F 39 °F 51 °F (2014)
Min Temperature 35 °F 22 °F 3 °F (2015)
Degree Days  
Heating Degree Days 22    
Moisture  
Dew Point 42 °F    
Average Humidity 92    
Maximum Humidity 100    
Minimum Humidity 82    
Precipitation  
Precipitation 0.04 in - - ()
Sea Level Pressure  
Sea Level Pressure 30.12 in    
Wind  
Wind Speed 6 mph (South)    
Max Wind Speed 16 mph    
Max Gust Speed 25 mph    
Visibility 10 miles    
Events Rain    
Averages and records for this station are not official NWS values.
T = Trace of Precipitation, MM = Missing Value Source: NWS Daily Summary

Daily Weather History Graph

Daily Weather History Graph

Search for Another Location

Airport or City:

Trip Planner

Search our weather history database for the weather conditions in past years. The results will help you decide how hot, cold, wet, or windy it might be!

Date:

Astronomy

Jan. 10, 2014 Rise Set
Actual Time 7:52 AM EST 5:35 PM EST
Civil Twilight 7:23 AM EST 6:04 PM EST
Nautical Twilight 6:50 AM EST 6:36 PM EST
Astronomical Twilight 6:18 AM EST 7:08 PM EST
Moon 1:37 PM EST (1/10) 3:00 AM EST (1/10)
Length of Visible Light 10h 41m
Length of Day
9h 43m
Waxing Gibbous, 75% of the Moon is Illuminated
Jan 10
Waxing Gibbous
Jan 15
Full
Jan 24
Last Quarter
Jan 30
New
Feb 6
First Quarter

Hourly Weather History & Observations

Time (EST) Temp. Windchill Dew Point Humidity Pressure Visibility Wind Dir Wind Speed Gust Speed Precip Events Conditions
12:15 AM 35.6 °F 28.0 °F 32.0 °F 87% 30.29 in 7.0 mi SSW 10.4 mph - N/A   Drizzle
12:35 AM 35.6 °F 30.7 °F 33.8 °F 93% 30.29 in 7.0 mi SSW 5.8 mph - 0.01 in Rain Rain
12:55 AM 35.6 °F 30.7 °F 33.8 °F 93% 30.29 in 10.0 mi SW 5.8 mph - 0.02 in Rain Light Rain
1:15 AM 35.6 °F 30.7 °F 33.8 °F 93% 30.28 in 7.0 mi SW 5.8 mph - N/A Rain Rain
1:35 AM 35.6 °F 30.7 °F 35.6 °F 100% 30.27 in 7.0 mi SSW 5.8 mph - 0.01 in   Drizzle
1:55 AM 35.6 °F 32.8 °F 35.6 °F 100% 30.27 in 5.0 mi SW 3.5 mph - 0.01 in Rain Rain
2:15 AM 35.6 °F 30.7 °F 35.6 °F 100% 30.27 in 7.0 mi SSW 5.8 mph - N/A   Light Drizzle
2:35 AM 35.6 °F 29.9 °F 35.6 °F 100% 30.26 in 7.0 mi South 6.9 mph - N/A   Overcast
2:55 AM 35.6 °F 30.7 °F 35.6 °F 100% 30.27 in 5.0 mi SSW 5.8 mph - 0.01 in   Overcast
3:15 AM 35.6 °F 31.7 °F 35.6 °F 100% 30.27 in 10.0 mi SSW 4.6 mph - N/A   Overcast
3:35 AM 37.4 °F 32.8 °F 37.4 °F 100% 30.27 in 5.0 mi SSW 5.8 mph - N/A   Light Drizzle
3:55 AM 37.4 °F 32.8 °F 37.4 °F 100% 30.26 in 10.0 mi SSW 5.8 mph - N/A   Overcast
4:15 AM 37.4 °F 32.8 °F 37.4 °F 100% 30.26 in 10.0 mi SSW 5.8 mph - N/A   Overcast
4:35 AM 37.4 °F 33.8 °F 37.4 °F 100% 30.25 in 10.0 mi SSW 4.6 mph - N/A   Overcast
4:55 AM 37.4 °F - 37.4 °F 100% 30.25 in 10.0 mi Calm Calm - N/A   Overcast
5:15 AM 37.4 °F 34.9 °F 37.4 °F 100% 30.25 in 10.0 mi SSW 3.5 mph - N/A   Overcast
5:35 AM 37.4 °F 33.8 °F 37.4 °F 100% 30.25 in 10.0 mi SSW 4.6 mph - N/A   Overcast
5:55 AM 37.4 °F 32.8 °F 37.4 °F 100% 30.24 in 10.0 mi SSW 5.8 mph - N/A   Overcast
6:15 AM 37.4 °F 33.8 °F 37.4 °F 100% 30.24 in 7.0 mi South 4.6 mph - N/A   Light Drizzle
6:35 AM 39.2 °F 34.2 °F 37.4 °F 93% 30.23 in 10.0 mi South 6.9 mph - N/A   Overcast
6:55 AM 37.4 °F 34.9 °F 37.4 °F 100% 30.24 in 10.0 mi South 3.5 mph - N/A   Overcast
7:15 AM 39.2 °F - 39.2 °F 100% 30.24 in 7.0 mi Calm Calm - N/A   Overcast
7:35 AM 37.4 °F 33.8 °F 37.4 °F 100% 30.24 in 10.0 mi SSW 4.6 mph - N/A   Overcast
7:55 AM 39.2 °F 37.0 °F 39.2 °F 100% 30.24 in 10.0 mi South 3.5 mph - N/A   Overcast
8:15 AM 39.2 °F 35.9 °F 39.2 °F 100% 30.24 in 10.0 mi South 4.6 mph - N/A   Overcast
8:35 AM 41.0 °F 39.0 °F 39.2 °F 93% 30.24 in 10.0 mi South 3.5 mph - N/A   Overcast
8:55 AM 41.0 °F 39.0 °F 39.2 °F 93% 30.25 in 10.0 mi South 3.5 mph - N/A   Overcast
9:15 AM 41.0 °F 37.1 °F 39.2 °F 93% 30.25 in 10.0 mi South 5.8 mph - N/A   Overcast
9:35 AM 41.0 °F 38.0 °F 39.2 °F 93% 30.25 in 10.0 mi SSE 4.6 mph - N/A   Overcast
9:55 AM 41.0 °F 38.0 °F 39.2 °F 93% 30.25 in 10.0 mi South 4.6 mph - N/A   Overcast
10:15 AM 41.0 °F 37.1 °F 39.2 °F 93% 30.25 in 10.0 mi SSE 5.8 mph - N/A   Overcast
10:35 AM 42.8 °F 39.3 °F 41.0 °F 93% 30.24 in 10.0 mi South 5.8 mph - N/A   Overcast
10:55 AM 42.8 °F 39.3 °F 41.0 °F 93% 30.24 in 10.0 mi South 5.8 mph - N/A   Overcast
11:15 AM 44.6 °F 41.4 °F 42.8 °F 93% 30.23 in 10.0 mi SSW 5.8 mph - N/A   Overcast
11:35 AM 44.6 °F 41.4 °F 42.8 °F 93% 30.22 in 10.0 mi SSW 5.8 mph - N/A   Overcast
11:55 AM 46.4 °F 42.9 °F 42.8 °F 87% 30.20 in 10.0 mi SSW 6.9 mph - N/A   Overcast
12:15 PM 46.4 °F 42.9 °F 44.6 °F 93% 30.18 in 10.0 mi South 6.9 mph - N/A   Mostly Cloudy
12:35 PM 48.2 °F - 44.6 °F 87% 30.16 in 10.0 mi South 9.2 mph - N/A   Overcast
12:55 PM 48.2 °F - 44.6 °F 87% 30.14 in 10.0 mi South 4.6 mph - N/A   Overcast
1:15 PM 50.0 °F - 46.4 °F 87% 30.13 in 10.0 mi SSW 9.2 mph - N/A   Overcast
1:35 PM 50.0 °F - 44.6 °F 82% 30.12 in 10.0 mi SSW 6.9 mph - N/A   Overcast
1:55 PM 50.0 °F - 46.4 °F 87% 30.11 in 10.0 mi SSW 8.1 mph - N/A   Overcast
2:15 PM 50.0 °F - 46.4 °F 87% 30.08 in 10.0 mi South 5.8 mph - N/A   Overcast
2:35 PM 51.8 °F - 46.4 °F 82% 30.06 in 10.0 mi SSE 4.6 mph - N/A   Scattered Clouds
2:55 PM 51.8 °F - 46.4 °F 82% 30.06 in 10.0 mi SSE 6.9 mph - N/A   Clear
3:15 PM 50.0 °F - 46.4 °F 87% 30.05 in 10.0 mi SSE 5.8 mph - N/A   Clear
3:35 PM 51.8 °F - 46.4 °F 82% 30.04 in 10.0 mi South 6.9 mph - N/A   Scattered Clouds
3:55 PM 51.8 °F - 46.4 °F 82% 30.03 in 10.0 mi South 6.9 mph - N/A   Mostly Cloudy
4:15 PM 50.0 °F - 46.4 °F 87% 30.01 in 10.0 mi SSE 6.9 mph - N/A   Mostly Cloudy
4:35 PM 50.0 °F - 44.6 °F 82% 30.01 in 10.0 mi SSE 5.8 mph - N/A   Scattered Clouds
4:55 PM 50.0 °F - 44.6 °F 82% 30.00 in 10.0 mi SSE 4.6 mph - N/A   Scattered Clouds
5:15 PM 50.0 °F - 44.6 °F 82% 30.00 in 10.0 mi SSE 5.8 mph - N/A   Mostly Cloudy
5:35 PM 48.2 °F - 44.6 °F 87% 29.98 in 10.0 mi SSE 6.9 mph - N/A   Scattered Clouds
5:55 PM 50.0 °F - 44.6 °F 82% 29.96 in 10.0 mi SSE 9.2 mph - N/A   Scattered Clouds
6:15 PM 48.2 °F - 44.6 °F 87% 29.95 in 10.0 mi SSE 8.1 mph - N/A   Scattered Clouds
6:35 PM 48.2 °F - 44.6 °F 87% 29.95 in 10.0 mi SSE 5.8 mph - N/A   Scattered Clouds
6:55 PM 46.4 °F 43.5 °F 44.6 °F 93% 29.95 in 10.0 mi SE 5.8 mph - N/A   Scattered Clouds
7:15 PM 46.4 °F 43.5 °F 44.6 °F 93% 29.94 in 10.0 mi SSE 5.8 mph - N/A   Clear
7:35 PM 46.4 °F 42.4 °F 44.6 °F 93% 29.92 in 10.0 mi SE 8.1 mph - N/A   Clear
7:55 PM 46.4 °F 44.3 °F 44.6 °F 93% 29.92 in 10.0 mi SSE 4.6 mph - N/A   Mostly Cloudy
8:15 PM 48.2 °F - 46.4 °F 93% 29.92 in 10.0 mi South 5.8 mph - N/A   Overcast
8:35 PM 48.2 °F - 44.6 °F 87% 29.91 in 10.0 mi SSW 3.5 mph - N/A   Overcast
8:55 PM 48.2 °F - 46.4 °F 93% 29.91 in 10.0 mi SSW 4.6 mph - N/A   Overcast
9:15 PM 48.2 °F - 46.4 °F 93% 29.89 in 10.0 mi SSW 6.9 mph - N/A   Overcast
9:35 PM 50.0 °F - 46.4 °F 87% 29.89 in 10.0 mi SW 8.1 mph - N/A   Overcast
9:55 PM 50.0 °F - 46.4 °F 87% 29.89 in 10.0 mi SW 6.9 mph - N/A   Overcast
10:15 PM 50.0 °F - 46.4 °F 87% 29.88 in 10.0 mi SW 8.1 mph - N/A   Overcast
10:35 PM 51.8 °F - 48.2 °F 88% 29.88 in 10.0 mi SW 10.4 mph 16.1 mph N/A   Overcast
10:55 PM 51.8 °F - 48.2 °F 88% 29.86 in 10.0 mi SW 13.8 mph 20.7 mph N/A   Overcast
11:15 PM 51.8 °F - 48.2 °F 88% 29.85 in 10.0 mi SSW 13.8 mph 20.7 mph N/A   Overcast
11:35 PM 51.8 °F - 50.0 °F 94% 29.83 in 10.0 mi SW 15.0 mph 19.6 mph N/A   Overcast
11:55 PM 51.8 °F - 50.0 °F 94% 29.81 in 10.0 mi SSW 16.1 mph 25.3 mph N/A   Mostly Cloudy